DW7980 Weather Reports


Display with metric or nautical units.
time (UTC)temp
F
wind
direction
speed
MPH
gust
MPH
rain 1hr
in
rain 24hr
in
rain mn
in
humidity
%
barometer
mb
20260502164042 53 64 0.0 4.0 0.00 0.01 0.01 84 1016.3
20260502163541 53 0 0.0 4.0 0.00 0.01 0.01 84 1016.2
20260502163055 53 0 1.0 4.0 0.00 0.01 0.01 84 1016.2
20260502162541 53 45 0.0 2.0 0.00 0.01 0.01 85 1016.3
20260502162040 53 0 0.0 2.0 0.00 0.01 0.01 86 1016.2
20260502161555 53 42 0.0 2.0 0.00 0.01 0.01 86 1016.3
20260502161038 52 0 0.0 2.0 0.00 0.01 0.01 85 1016.4
20260502160538 52 14 0.0 1.0 0.00 0.01 0.01 86 1016.4
20260502152039 51 0 0.0 0.0 0.00 0.01 0.01 87 1016.4
20260502151553 51 0 0.0 0.0 0.00 0.01 0.01 87 1016.5
20260502151038 51 0 0.0 0.0 0.00 0.01 0.01 87 1016.5
20260502150538 51 0 0.0 0.0 0.00 0.01 0.01 87 1016.4
20260502130538 49 0 0.0 0.0 0.00 0.01 0.01 88 1016.4
20260502123537 49 0 0.0 0.0 0.00 0.01 0.01 88 1016.4
20260502123043 49 0 0.0 0.0 0.00 0.01 0.01 88 1016.5
20260502122538 49 0 0.0 0.0 0.00 0.01 0.01 88 1016.4
20260502122038 49 0 0.0 0.0 0.00 0.01 0.01 88 1016.5
20260502121551 49 0 0.0 0.0 0.00 0.01 0.01 88 1016.5
20260502121038 49 0 0.0 0.0 0.00 0.01 0.01 88 1016.4
20260502120537 49 0 0.0 0.0 0.00 0.01 0.01 88 1016.5
20260502115537 49 0 0.0 0.0 0.00 0.01 0.01 88 1016.4
20260502115037 49 0 0.0 0.0 0.00 0.01 0.01 88 1016.4
20260502114556 49 0 0.0 0.0 0.00 0.01 0.01 88 1016.4
20260502114037 49 0 0.0 0.0 0.00 0.01 0.01 88 1016.5
20260502113538 49 0 0.0 0.0 0.00 0.01 0.01 88 1016.5
20260502113050 49 0 0.0 0.0 0.00 0.01 0.01 88 1016.4
20260502112538 49 0 0.0 0.0 0.00 0.01 0.01 88 1016.6
20260502112038 49 0 0.0 0.0 0.00 0.01 0.01 88 1016.5
20260502111547 49 0 0.0 0.0 0.00 0.01 0.01 88 1016.6
20260502111037 50 0 0.0 0.0 0.00 0.01 0.01 88 1016.5
20260502110537 50 0 0.0 0.0 0.00 0.01 0.01 88 1016.3
20260502110050 50 0 0.0 0.0 0.00 0.01 0.01 88 1016.0
20260502105538 50 0 0.0 0.0 0.00 0.01 0.01 88 1016.1
20260502105037 50 0 0.0 0.0 0.00 0.01 0.01 88 1016.3
20260502104553 50 0 0.0 0.0 0.00 0.01 0.01 88 1016.3
20260502104037 50 0 0.0 0.0 0.00 0.01 0.01 88 1016.3
20260502103537 50 0 0.0 0.0 0.00 0.01 0.01 88 1016.2
20260502103048 50 0 0.0 0.0 0.00 0.01 0.01 88 1016.6
20260502102538 50 0 0.0 0.0 0.00 0.01 0.01 88 1016.7
20260502102040 50 0 0.0 0.0 0.00 0.01 0.01 88 1016.6
20260502101556 50 0 0.0 0.0 0.00 0.01 0.01 88 1016.6
20260502101039 50 0 0.0 0.0 0.00 0.01 0.01 87 1016.5
20260502100538 50 0 0.0 0.0 0.00 0.01 0.01 87 1016.5
20260502100113 50 0 0.0 0.0 0.00 0.01 0.01 88 1016.0
20260502091039 51 349 0.0 2.0 0.00 0.01 0.01 87 1017.4
20260502090538 51 0 0.0 2.0 0.00 0.01 0.01 87 1017.6
20260502071038 55 0 0.0 2.0 0.00 0.00 0.00 77 1017.2
20260502070538 55 117 1.0 3.0 0.00 0.00 0.00 77 1017.1
20260502070053 56 0 0.0 3.0 0.00 0.00 0.00 76 1017.3
20260502065538 56 117 1.0 3.0 0.00 0.00 0.00 76 1017.2
20260502065037 56 0 0.0 2.0 0.00 0.00 0.00 76 1017.2
20260502064556 56 0 0.0 2.0 0.00 0.00 0.00 77 1017.3
20260502064037 56 5 0.0 1.0 0.00 0.00 0.00 77 1017.2
20260502063539 57 0 0.0 1.0 0.00 0.00 0.00 77 1017.3
20260502063045 57 0 0.0 1.0 0.00 0.00 0.00 77 1017.3
20260502062540 57 0 0.0 1.0 0.00 0.00 0.00 77 1017.3
20260502062036 57 0 0.0 1.0 0.00 0.00 0.00 76 1017.3
20260502061544 57 0 0.0 1.0 0.00 0.00 0.00 76 1017.2
20260502061038 58 5 0.0 1.0 0.00 0.00 0.00 75 1017.1
20260502060537 58 0 0.0 0.0 0.00 0.00 0.00 75 1017.1
20260502060041 58 0 0.0 1.0 0.00 0.00 0.00 74 1017.2
20260502055538 59 0 0.0 1.0 0.00 0.00 0.00 74 1017.1
20260502055037 59 0 0.0 1.0 0.00 0.00 0.00 74 1017.0
20260502054550 59 0 0.0 1.0 0.00 0.00 0.00 73 1016.8
20260502054039 60 5 0.0 2.0 0.00 0.00 0.00 73 1016.9
20260502053537 60 0 0.0 2.0 0.00 0.00 0.00 73 1016.7
20260502053047 60 0 0.0 2.0 0.00 0.00 0.00 72 1016.8
20260502052537 60 0 0.0 2.0 0.00 0.00 0.00 72 1016.8
20260502052037 61 0 0.0 2.0 0.00 0.00 0.00 72 1016.8
20260502051612 61 0 0.0 0.0 0.00 0.00 0.00 72 1016.7
20260502051038 61 0 0.0 0.0 0.00 0.00 0.00 71 1016.7
20260502050537 61 0 0.0 0.0 0.00 0.00 0.00 71 1016.6
20260502050042 61 0 0.0 1.0 0.00 0.00 0.00 70 1016.6
20260502045539 62 0 0.0 1.0 0.00 0.00 0.00 70 1016.5
20260502045037 62 0 0.0 1.0 0.00 0.00 0.00 71 1016.5
20260502044541 62 0 0.0 1.0 0.00 0.00 0.00 72 1016.4
20260502044037 62 175 0.0 1.0 0.00 0.00 0.00 72 1016.5
20260502043539 62 0 0.0 2.0 0.00 0.00 0.00 72 1016.5
20260502043050 63 0 0.0 2.0 0.00 0.00 0.00 72 1016.5
20260502042538 63 0 0.0 2.0 0.00 0.00 0.00 71 1016.5
20260502042039 63 0 0.0 1.0 0.00 0.00 0.00 73 1016.4
20260502041550 63 0 0.0 1.0 0.00 0.00 0.00 72 1016.3
20260502041038 63 0 0.0 0.0 0.00 0.00 0.00 72 1016.1
20260502040540 63 0 0.0 0.0 0.00 0.00 0.00 72 1016.0
20260502040050 63 0 0.0 0.0 0.00 0.00 0.00 71 1015.9
20260502035543 64 0 0.0 1.0 0.00 0.00 0.00 72 1015.8
20260502035039 64 0 0.0 1.0 0.00 0.00 0.00 71 1015.8
20260502034550 64 0 0.0 1.0 0.00 0.00 0.00 70 1015.6
20260502034037 64 0 0.0 1.0 0.00 0.00 0.00 71 1015.5
20260502033539 65 0 0.0 1.0 0.00 0.00 0.00 71 1015.4
20260502033055 65 0 0.0 0.0 0.00 0.00 0.00 70 1015.4
20260502032537 65 0 0.0 1.0 0.00 0.00 0.00 70 1015.4
20260502032039 65 0 0.0 1.0 0.00 0.00 0.00 71 1015.4
20260502031606 65 0 0.0 1.0 0.00 0.00 0.00 70 1015.3
20260502031039 66 0 0.0 1.0 0.00 0.00 0.00 70 1015.3
20260502030541 66 0 0.0 3.0 0.00 0.00 0.00 70 1015.3
20260502030050 66 0 0.0 3.0 0.00 0.00 0.00 69 1015.2
20260502025539 66 0 1.0 3.0 0.00 0.00 0.00 69 1015.2
20260502025039 67 0 0.0 2.0 0.00 0.00 0.00 68 1015.1
20260502024554 67 175 0.0 2.0 0.00 0.00 0.00 67 1015.1
20260502024039 67 175 0.0 3.0 0.00 0.00 0.00 67 1015.1
20260502023539 68 0 1.0 3.0 0.00 0.00 0.00 65 1015.0
20260502023043 68 189 0.0 1.0 0.00 0.00 0.00 66 1014.9
20260502022539 68 0 0.0 2.0 0.00 0.00 0.00 65 1014.9
20260502022038 68 0 0.0 2.0 0.00 0.00 0.00 63 1014.7
20260502021543 69 189 0.0 5.0 0.00 0.00 0.00 63 1014.7
20260502021038 69 189 0.0 5.0 0.00 0.00 0.00 63 1014.7
20260502020541 69 173 1.0 4.0 0.00 0.00 0.00 62 1014.6
20260502015539 69 226 1.0 4.0 0.00 0.00 0.00 62 1014.6
20260502015041 69 175 1.0 5.0 0.00 0.00 0.00 61 1014.6
20260502014547 69 174 1.0 5.0 0.00 0.00 0.00 61 1014.5
20260502014039 69 188 2.0 5.0 0.00 0.00 0.00 62 1014.6
20260502013542 69 195 1.0 4.0 0.00 0.00 0.00 62 1014.6
20260502013048 69 187 1.0 5.0 0.00 0.00 0.00 61 1014.6
20260502012542 69 181 2.0 5.0 0.00 0.00 0.00 60 1014.6
20260502012039 69 183 2.0 6.0 0.00 0.00 0.00 60 1014.6
20260502011549 70 0 2.0 6.0 0.00 0.00 0.00 61 1014.5
20260502011039 70 169 1.0 5.0 0.00 0.00 0.00 61 1014.6
20260502010538 70 0 0.0 3.0 0.00 0.00 0.00 62 1014.6
20260502010054 70 192 0.0 5.0 0.00 0.00 0.00 61 1014.6
20260502005540 70 0 2.0 5.0 0.00 0.00 0.00 60 1014.7
20260502005039 70 178 1.0 4.0 0.00 0.00 0.00 61 1014.7
20260502004548 70 0 1.0 6.0 0.00 0.00 0.00 59 1014.7
20260502004040 70 0 0.0 6.0 0.00 0.00 0.00 60 1014.7
20260502003539 70 180 2.0 6.0 0.00 0.00 0.00 60 1014.7
20260502003046 70 182 2.0 7.0 0.00 0.00 0.00 60 1014.6
20260502002539 70 165 3.0 7.0 0.00 0.00 0.00 59 1014.6
20260502002040 70 184 1.0 5.0 0.00 0.00 0.00 60 1014.6
20260502001548 70 178 1.0 6.0 0.00 0.00 0.00 58 1014.7
20260502001041 70 0 0.0 6.0 0.00 0.00 0.00 58 1014.8
20260502000538 70 126 1.0 6.0 0.00 0.00 0.00 57 1014.8
20260502000043 70 176 1.0 5.0 0.00 0.00 0.00 57 1014.9
20260501235543 70 177 1.0 5.0 0.00 0.00 0.00 58 1014.7
20260501235039 70 148 1.0 6.0 0.00 0.00 0.00 57 1014.8
20260501234555 70 179 1.0 6.0 0.00 0.00 0.00 61 1014.8
20260501234038 70 180 2.0 6.0 0.00 0.00 0.00 60 1014.8
20260501233539 70 165 0.0 6.0 0.00 0.00 0.00 58 1014.8
20260501233058 70 162 1.0 6.0 0.00 0.00 0.00 59 1014.9
20260501232539 70 173 0.0 5.0 0.00 0.00 0.00 60 1014.9
20260501232043 70 0 0.0 6.0 0.00 0.00 0.00 60 1014.9
20260501231558 70 141 0.0 6.0 0.00 0.00 0.00 57 1015.0
20260501231039 70 176 3.0 7.0 0.00 0.00 0.00 57 1015.1
20260501230539 70 59 2.0 7.0 0.00 0.00 0.00 58 1015.1
20260501230047 71 184 1.0 4.0 0.00 0.00 0.00 56 1015.2
20260501225536 71 224 0.0 4.0 0.00 0.00 0.00 55 1015.2
20260501225037 71 311 1.0 2.0 0.00 0.00 0.00 57 1015.3
20260501224551 71 0 1.0 3.0 0.00 0.00 0.00 56 1015.4
20260501224035 71 171 0.0 4.0 0.00 0.00 0.00 57 1015.4
20260501223537 71 163 0.0 4.0 0.00 0.00 0.00 56 1015.4
20260501223049 71 216 0.0 4.0 0.00 0.00 0.00 58 1015.5
20260501222538 71 130 0.0 4.0 0.00 0.00 0.00 59 1015.5
20260501222038 71 65 2.0 4.0 0.00 0.00 0.00 56 1015.5
20260501221549 70 51 1.0 5.0 0.00 0.00 0.00 61 1015.6
20260501221038 70 37 1.0 5.0 0.00 0.00 0.00 58 1015.7
20260501220537 69 175 2.0 5.0 0.00 0.00 0.00 60 1015.7
20260501220051 69 262 0.0 3.0 0.00 0.00 0.00 59 1015.8
20260501215537 69 180 0.0 5.0 0.00 0.00 0.00 62 1015.9
20260501215037 69 225 2.0 5.0 0.00 0.00 0.00 61 1015.9
20260501214600 68 165 1.0 5.0 0.00 0.00 0.00 61 1016.0
20260501214035 68 175 1.0 5.0 0.00 0.00 0.00 65 1016.1
20260501213535 68 61 1.0 7.0 0.00 0.00 0.00 61 1016.2
20260501213049 68 237 2.0 7.0 0.00 0.00 0.00 63 1016.2
20260501212540 68 236 2.0 7.0 0.00 0.00 0.00 61 1016.2
20260501212037 69 330 0.0 3.0 0.00 0.00 0.00 63 1016.2
20260501211543 68 331 0.0 3.0 0.00 0.00 0.00 64 1016.3
20260501211035 67 336 0.0 7.0 0.00 0.00 0.00 66 1016.3
20260501210539 67 135 2.0 7.0 0.00 0.00 0.00 64 1016.3
20260501210053 67 0 1.0 7.0 0.00 0.00 0.00 65 1016.2
20260501205538 67 168 3.0 7.0 0.00 0.00 0.00 63 1016.3
20260501205041 67 206 1.0 7.0 0.00 0.00 0.00 65 1016.4
20260501204551 67 161 2.0 7.0 0.00 0.00 0.00 64 1016.5
20260501204041 67 196 2.0 9.0 0.00 0.00 0.00 65 1016.6
20260501203541 67 116 1.0 9.0 0.00 0.00 0.00 64 1016.6
20260501203049 67 203 1.0 5.0 0.00 0.00 0.00 65 1016.7
20260501202541 67 0 2.0 7.0 0.00 0.00 0.00 65 1016.7
20260501202041 66 196 2.0 7.0 0.00 0.00 0.00 65 1016.7
20260501201551 66 82 2.0 8.0 0.00 0.00 0.00 68 1016.7
20260501201040 66 176 3.0 8.0 0.00 0.00 0.00 65 1016.8
20260501200540 66 92 2.0 7.0 0.00 0.00 0.00 64 1016.8
20260501200052 66 169 1.0 6.0 0.00 0.00 0.00 68 1016.8
20260501195540 66 281 3.0 6.0 0.00 0.00 0.00 65 1016.8
20260501195041 66 167 2.0 6.0 0.00 0.00 0.00 65 1016.9
20260501194558 66 175 1.0 6.0 0.00 0.00 0.00 68 1017.0
20260501194041 65 66 1.0 7.0 0.00 0.00 0.00 67 1017.0
20260501193544 65 134 2.0 7.0 0.00 0.00 0.00 68 1017.0
20260501193045 65 157 1.0 5.0 0.00 0.00 0.00 66 1017.1
20260501192541 65 222 2.0 5.0 0.00 0.00 0.00 68 1017.1
20260501192041 64 224 2.0 4.0 0.00 0.00 0.00 68 1017.2
20260501191552 64 150 1.0 6.0 0.00 0.00 0.00 69 1017.2
20260501191041 63 215 2.0 6.0 0.00 0.00 0.00 67 1017.2
20260501190543 64 169 0.0 6.0 0.00 0.00 0.00 68 1017.2
20260501190113 64 186 1.0 5.0 0.00 0.00 0.00 69 1017.2
20260501185540 64 175 1.0 6.0 0.00 0.00 0.00 70 1017.3
20260501185038 64 250 1.0 6.0 0.00 0.00 0.00 69 1017.3
20260501184549 64 0 1.0 6.0 0.00 0.00 0.00 69 1017.3
20260501184041 63 199 1.0 6.0 0.00 0.00 0.00 71 1017.4
20260501183542 63 186 0.0 7.0 0.00 0.00 0.00 73 1017.3
20260501183050 62 0 1.0 8.0 0.00 0.00 0.00 72 1017.3
20260501182541 62 173 2.0 9.0 0.00 0.00 0.00 74 1017.2
20260501182040 62 0 3.0 9.0 0.00 0.00 0.00 73 1017.3
20260501181600 61 244 2.0 8.0 0.00 0.00 0.00 73 1017.3
20260501181040 61 184 3.0 8.0 0.00 0.00 0.00 72 1017.4
20260501180541 61 158 4.0 7.0 0.00 0.00 0.00 73 1017.3
20260501180100 61 108 2.0 6.0 0.00 0.00 0.00 73 1017.3
20260501175541 61 175 2.0 6.0 0.00 0.00 0.00 74 1017.4
20260501175041 60 118 2.0 6.0 0.00 0.00 0.00 74 1017.4
20260501174605 60 196 2.0 6.0 0.00 0.00 0.00 74 1017.3
20260501174037 60 0 1.0 6.0 0.00 0.00 0.00 76 1017.4
20260501173537 59 173 2.0 7.0 0.00 0.00 0.00 74 1017.3
20260501173106 59 163 3.0 7.0 0.00 0.00 0.00 74 1017.3
20260501172537 59 175 2.0 7.0 0.00 0.00 0.00 76 1017.3
20260501172037 59 175 0.0 5.0 0.00 0.00 0.00 78 1017.3
20260501171555 58 0 2.0 6.0 0.00 0.00 0.00 77 1017.2